Tracking 19562 objects as of 23-Mar-2019
HD Live streaming from Space Station
objects crossing your sky now

SJ-5

Track SJ-5 now!
10-day predictions
SJ-5 is classified as:


NORAD ID: 25731
Int'l Code: 1999-025B
Perigee: 846.7 km
Apogee: 869.9 km
Inclination: 99.1 °
Period: 102.0 minutes
Semi major axis: 7229 km
RCS: 1.539 m2 (large)
Launch date: May 10, 1999
Source: People's Republic of China (PRC)
Launch site: Taiyaun Space Center, China (TSC)
aabbcc
Your satellite tracking list
Your tracking list is empty




NASA's NSSDC Master Catalog

Two Line Element Set (TLE):
1 25731U 99025B   19080.99434982 -.00000002  00000-0  23539-4 0  9998
2 25731  99.0598 102.0606 0016024 276.6199  83.3148 14.12410200 23869
Source of the keplerian elements: AFSPC